Time,TemperatureF,DewpointF,PressureIn,WindDirection,WindDirectionDegrees,WindSpeedMPH,WindSpeedGustMPH,Humidity,HourlyPrecipIn,Conditions,Clouds,dailyrainin,SoftwareType,DateUTC
2013-08-14 00:01:00,71.1,52.5,29.90,West,276,0.0,13.0,52,0.00,,,0.00,Weather View 32 v70,2013-08-14 07:01:00,
2013-08-14 00:06:00,70.1,51.6,29.90,West,276,0.0,13.0,52,0.00,,,0.00,Weather View 32 v70,2013-08-14 07:06:00,
2013-08-14 00:11:00,69.3,51.9,29.90,West,276,0.0,13.0,54,0.00,,,0.00,Weather View 32 v70,2013-08-14 07:11:00,
2013-08-14 00:16:00,68.8,51.9,29.90,SSE,151,0.0,8.0,55,0.00,,,0.00,Weather View 32 v70,2013-08-14 07:16:00,
2013-08-14 00:21:00,68.6,51.7,29.90,SSE,153,0.0,8.0,55,0.00,,,0.00,Weather View 32 v70,2013-08-14 07:21:00,
2013-08-14 00:26:00,69.4,53.5,29.90,WSW,241,3.0,12.0,57,0.00,,,0.00,Weather View 32 v70,2013-08-14 07:26:00,
2013-08-14 00:31:00,70.3,53.3,29.90,West,273,4.0,12.0,55,0.00,,,0.00,Weather View 32 v70,2013-08-14 07:31:00,
2013-08-14 00:36:00,70.4,53.4,29.91,West,263,1.0,12.0,55,0.00,,,0.00,Weather View 32 v70,2013-08-14 07:36:00,
2013-08-14 00:41:00,70.8,53.3,29.91,West,259,0.0,12.0,54,0.00,,,0.00,Weather View 32 v70,2013-08-14 07:41:00,
2013-08-14 00:46:00,70.8,52.8,29.91,West,259,0.0,12.0,53,0.00,,,0.00,Weather View 32 v70,2013-08-14 07:46:00,
2013-08-14 00:51:00,70.8,53.3,29.91,West,259,0.0,12.0,54,0.00,,,0.00,Weather View 32 v70,2013-08-14 07:51:00,
2013-08-14 00:56:00,70.6,53.1,29.91,West,259,0.0,12.0,54,0.00,,,0.00,Weather View 32 v70,2013-08-14 07:56:00,
2013-08-14 01:01:00,70.1,54.1,29.91,West,259,0.0,12.0,57,0.00,,,0.00,Weather View 32 v70,2013-08-14 08:01:00,
2013-08-14 01:06:00,69.6,54.1,29.91,West,259,3.0,12.0,58,0.00,,,0.00,Weather View 32 v70,2013-08-14 08:06:00,
2013-08-14 01:11:00,69.3,54.3,29.91,West,259,0.0,12.0,59,0.00,,,0.00,Weather View 32 v70,2013-08-14 08:11:00,
2013-08-14 01:16:00,68.4,52.0,29.91,West,259,0.0,12.0,56,0.00,,,0.00,Weather View 32 v70,2013-08-14 08:16:00,
2013-08-14 01:21:00,67.4,51.6,29.91,West,259,0.0,12.0,57,0.00,,,0.00,Weather View 32 v70,2013-08-14 08:21:00,
2013-08-14 01:26:00,66.8,52.4,29.91,West,259,0.0,11.0,60,0.00,,,0.00,Weather View 32 v70,2013-08-14 08:26:00,
2013-08-14 01:31:00,66.3,51.5,29.91,West,259,0.0,7.0,59,0.00,,,0.00,Weather View 32 v70,2013-08-14 08:31:00,
2013-08-14 01:36:00,65.8,51.5,29.91,West,259,0.0,6.0,60,0.00,,,0.00,Weather View 32 v70,2013-08-14 08:36:00,
2013-08-14 01:41:00,65.3,51.5,29.91,West,259,0.0,4.0,61,0.00,,,0.00,Weather View 32 v70,2013-08-14 08:41:00,
2013-08-14 01:46:00,65.0,51.6,29.91,West,259,0.0,4.0,62,0.00,,,0.00,Weather View 32 v70,2013-08-14 08:46:00,
2013-08-14 01:51:00,64.5,51.6,29.91,West,259,0.0,4.0,63,0.00,,,0.00,Weather View 32 v70,2013-08-14 08:51:00,
2013-08-14 01:56:00,64.0,51.5,29.92,West,259,0.0,4.0,64,0.00,,,0.00,Weather View 32 v70,2013-08-14 08:56:00,
2013-08-14 02:01:00,63.7,51.7,29.91,West,259,0.0,4.0,65,0.00,,,0.00,Weather View 32 v70,2013-08-14 09:01:00,
2013-08-14 02:06:00,63.2,51.2,29.91,West,259,0.0,4.0,65,0.00,,,0.00,Weather View 32 v70,2013-08-14 09:06:00,
2013-08-14 02:11:00,63.1,51.1,29.91,West,259,0.0,4.0,65,0.00,,,0.00,Weather View 32 v70,2013-08-14 09:11:00,
2013-08-14 02:16:00,62.9,51.3,29.91,West,259,0.0,4.0,66,0.00,,,0.00,Weather View 32 v70,2013-08-14 09:16:00,
2013-08-14 02:21:00,63.4,52.2,29.91,WNW,286,0.0,6.0,67,0.00,,,0.00,Weather View 32 v70,2013-08-14 09:21:00,
2013-08-14 02:26:00,63.2,51.6,29.91,WNW,285,0.0,6.0,66,0.00,,,0.00,Weather View 32 v70,2013-08-14 09:26:00,
2013-08-14 02:31:00,62.7,51.6,29.91,WNW,285,0.0,6.0,67,0.00,,,0.00,Weather View 32 v70,2013-08-14 09:31:00,
2013-08-14 02:36:00,62.4,51.7,29.91,WNW,285,0.0,6.0,68,0.00,,,0.00,Weather View 32 v70,2013-08-14 09:36:00,
2013-08-14 02:41:00,62.4,51.7,29.91,West,281,0.0,6.0,68,0.00,,,0.00,Weather View 32 v70,2013-08-14 09:41:00,
2013-08-14 02:46:00,62.4,51.7,29.91,West,281,0.0,6.0,68,0.00,,,0.00,Weather View 32 v70,2013-08-14 09:46:00,
2013-08-14 02:51:00,62.1,51.8,29.91,West,281,0.0,6.0,69,0.00,,,0.00,Weather View 32 v70,2013-08-14 09:51:00,
2013-08-14 02:56:00,61.8,51.5,29.91,West,281,0.0,6.0,69,0.00,,,0.00,Weather View 32 v70,2013-08-14 09:56:00,
2013-08-14 03:01:00,61.5,51.2,29.91,West,281,0.0,6.0,69,0.00,,,0.00,Weather View 32 v70,2013-08-14 10:01:00,
2013-08-14 03:06:00,61.0,50.7,29.91,West,281,0.0,6.0,69,0.00,,,0.00,Weather View 32 v70,2013-08-14 10:06:00,
2013-08-14 03:11:00,60.7,50.4,29.91,West,281,0.0,6.0,69,0.00,,,0.00,Weather View 32 v70,2013-08-14 10:11:00,
2013-08-14 03:16:00,60.5,50.6,29.91,West,281,0.0,6.0,70,0.00,,,0.00,Weather View 32 v70,2013-08-14 10:16:00,
2013-08-14 03:21:00,60.2,50.7,29.91,West,281,0.0,5.0,71,0.00,,,0.00,Weather View 32 v70,2013-08-14 10:21:00,
2013-08-14 03:26:00,60.1,50.6,29.91,West,281,0.0,5.0,71,0.00,,,0.00,Weather View 32 v70,2013-08-14 10:26:00,
2013-08-14 03:31:00,59.9,50.8,29.91,West,281,0.0,5.0,72,0.00,,,0.00,Weather View 32 v70,2013-08-14 10:31:00,
2013-08-14 03:36:00,59.8,50.7,29.91,West,281,0.0,5.0,72,0.00,,,0.00,Weather View 32 v70,2013-08-14 10:36:00,
2013-08-14 03:41:00,59.6,50.5,29.91,West,281,0.0,3.0,72,0.00,,,0.00,Weather View 32 v70,2013-08-14 10:41:00,
2013-08-14 03:46:00,59.5,50.8,29.91,West,281,0.0,0.0,73,0.00,,,0.00,Weather View 32 v70,2013-08-14 10:46:00,
2013-08-14 03:51:00,59.3,50.3,29.91,West,281,0.0,0.0,72,0.00,,,0.00,Weather View 32 v70,2013-08-14 10:51:00,
2013-08-14 03:56:00,59.5,50.8,29.91,West,281,0.0,0.0,73,0.00,,,0.00,Weather View 32 v70,2013-08-14 10:56:00,
2013-08-14 04:01:00,59.5,50.8,29.91,West,281,0.0,0.0,73,0.00,,,0.00,Weather View 32 v70,2013-08-14 11:01:00,
2013-08-14 04:06:00,59.5,50.8,29.91,West,281,0.0,0.0,73,0.00,,,0.00,Weather View 32 v70,2013-08-14 11:06:00,
2013-08-14 04:11:00,59.3,50.6,29.91,West,281,0.0,0.0,73,0.00,,,0.00,Weather View 32 v70,2013-08-14 11:11:00,
2013-08-14 04:16:00,59.2,50.5,29.91,West,281,0.0,0.0,73,0.00,,,0.00,Weather View 32 v70,2013-08-14 11:16:00,
2013-08-14 04:21:00,58.9,50.2,29.91,West,281,0.0,0.0,73,0.00,,,0.00,Weather View 32 v70,2013-08-14 11:21:00,
2013-08-14 04:26:00,58.9,50.2,29.91,West,281,0.0,1.0,73,0.00,,,0.00,Weather View 32 v70,2013-08-14 11:26:00,
2013-08-14 04:31:00,60.1,51.4,29.91,West,281,0.0,6.0,73,0.00,,,0.00,Weather View 32 v70,2013-08-14 11:31:00,
2013-08-14 04:36:00,60.1,50.6,29.91,West,281,0.0,6.0,71,0.00,,,0.00,Weather View 32 v70,2013-08-14 11:36:00,
2013-08-14 04:41:00,60.1,50.6,29.91,West,281,0.0,6.0,71,0.00,,,0.00,Weather View 32 v70,2013-08-14 11:41:00,
2013-08-14 04:46:00,59.9,51.2,29.91,West,281,0.0,6.0,73,0.00,,,0.00,Weather View 32 v70,2013-08-14 11:46:00,
2013-08-14 04:51:00,59.9,51.6,29.91,West,281,0.0,6.0,74,0.00,,,0.00,Weather View 32 v70,2013-08-14 11:51:00,
2013-08-14 04:56:00,60.1,51.4,29.91,West,281,0.0,6.0,73,0.00,,,0.00,Weather View 32 v70,2013-08-14 11:56:00,
2013-08-14 05:01:00,59.6,50.5,29.91,West,281,0.0,6.0,72,0.00,,,0.00,Weather View 32 v70,2013-08-14 12:01:00,
2013-08-14 05:06:00,59.5,51.5,29.91,West,281,0.0,6.0,75,0.00,,,0.00,Weather View 32 v70,2013-08-14 12:06:00,
2013-08-14 05:11:00,59.3,51.0,29.92,West,281,0.0,6.0,74,0.00,,,0.00,Weather View 32 v70,2013-08-14 12:11:00,
2013-08-14 05:16:00,58.9,50.6,29.92,West,281,0.0,6.0,74,0.00,,,0.00,Weather View 32 v70,2013-08-14 12:16:00,
2013-08-14 05:21:00,58.4,50.5,29.92,West,281,0.0,6.0,75,0.00,,,0.00,Weather View 32 v70,2013-08-14 12:21:00,
2013-08-14 05:26:00,58.3,50.4,29.92,West,280,0.0,6.0,75,0.00,,,0.00,Weather View 32 v70,2013-08-14 12:26:00,
2013-08-14 05:31:00,58.1,50.6,29.92,West,280,0.0,3.0,76,0.00,,,0.00,Weather View 32 v70,2013-08-14 12:31:00,
2013-08-14 05:36:00,58.1,50.2,29.92,West,280,0.0,3.0,75,0.00,,,0.00,Weather View 32 v70,2013-08-14 12:36:00,
2013-08-14 05:41:00,58.3,50.4,29.92,West,279,0.0,3.0,75,0.00,,,0.00,Weather View 32 v70,2013-08-14 12:41:00,
2013-08-14 05:46:00,58.4,50.5,29.92,West,279,0.0,3.0,75,0.00,,,0.00,Weather View 32 v70,2013-08-14 12:46:00,
2013-08-14 05:51:00,58.4,50.1,29.92,West,279,0.0,3.0,74,0.00,,,0.00,Weather View 32 v70,2013-08-14 12:51:00,
2013-08-14 05:56:00,58.4,50.1,29.92,West,279,0.0,3.0,74,0.00,,,0.00,Weather View 32 v70,2013-08-14 12:56:00,
2013-08-14 06:00:00,58.3,50.0,29.92,West,280,0.0,3.0,74,0.00,,,0.00,Weather View 32 v70,2013-08-14 13:00:00,
2013-08-14 06:01:00,58.3,50.4,29.92,West,280,0.0,3.0,75,0.00,,,0.00,Weather View 32 v70,2013-08-14 13:01:00,
2013-08-14 06:04:00,58.3,50.4,29.92,West,279,0.0,3.0,75,0.00,,,0.00,Weather View 32 v70,2013-08-14 13:04:00,
2013-08-14 06:20:00,58.3,50.4,29.92,West,280,0.0,3.0,75,0.00,,,0.00,Weather View 32 v70,2013-08-14 13:20:00,
2013-08-14 06:25:00,58.4,50.1,29.92,West,279,0.0,3.0,74,0.00,,,0.00,Weather View 32 v70,2013-08-14 13:25:00,
2013-08-14 06:30:00,58.7,50.4,29.92,West,279,0.0,1.0,74,0.00,,,0.00,Weather View 32 v70,2013-08-14 13:30:00,
2013-08-14 06:35:00,59.0,50.7,29.92,West,280,0.0,0.0,74,0.00,,,0.00,Weather View 32 v70,2013-08-14 13:35:00,
2013-08-14 06:40:00,59.2,50.5,29.92,West,279,0.0,0.0,73,0.00,,,0.00,Weather View 32 v70,2013-08-14 13:40:00,
2013-08-14 06:45:00,59.5,50.8,29.92,West,279,0.0,0.0,73,0.00,,,0.00,Weather View 32 v70,2013-08-14 13:45:00,
2013-08-14 06:50:00,59.8,51.1,29.92,West,279,0.0,0.0,73,0.00,,,0.00,Weather View 32 v70,2013-08-14 13:50:00,
2013-08-14 06:55:00,60.1,51.8,29.92,West,279,0.0,0.0,74,0.00,,,0.00,Weather View 32 v70,2013-08-14 13:55:00,
2013-08-14 07:00:00,60.9,52.9,29.92,West,279,0.0,1.0,75,0.00,,,0.00,Weather View 32 v70,2013-08-14 14:00:00,
2013-08-14 07:05:00,61.3,52.5,29.93,West,279,0.0,1.0,73,0.00,,,0.00,Weather View 32 v70,2013-08-14 14:05:00,
2013-08-14 07:10:00,61.5,52.4,29.92,West,279,0.0,3.0,72,0.00,,,0.00,Weather View 32 v70,2013-08-14 14:10:00,
2013-08-14 07:15:00,61.3,51.8,29.93,West,277,3.0,3.0,71,0.00,,,0.00,Weather View 32 v70,2013-08-14 14:15:00,
2013-08-14 07:20:00,61.5,52.4,29.93,West,277,0.0,4.0,72,0.00,,,0.00,Weather View 32 v70,2013-08-14 14:20:00,
2013-08-14 07:25:00,62.0,52.8,29.93,West,277,0.0,4.0,72,0.00,,,0.00,Weather View 32 v70,2013-08-14 14:25:00,
2013-08-14 07:30:00,63.1,53.9,29.93,West,267,0.0,7.0,72,0.00,,,0.00,Weather View 32 v70,2013-08-14 14:30:00,
2013-08-14 07:35:00,63.9,54.3,29.93,West,269,0.0,7.0,71,0.00,,,0.00,Weather View 32 v70,2013-08-14 14:35:00,
2013-08-14 07:40:00,64.3,53.9,29.93,West,269,0.0,7.0,69,0.00,,,0.00,Weather View 32 v70,2013-08-14 14:40:00,
2013-08-14 07:45:00,64.8,54.0,29.93,West,269,0.0,7.0,68,0.00,,,0.00,Weather View 32 v70,2013-08-14 14:45:00,
2013-08-14 07:50:00,65.3,52.8,29.93,West,265,0.0,7.0,64,0.00,,,0.00,Weather View 32 v70,2013-08-14 14:50:00,
2013-08-14 07:55:00,65.3,51.9,29.93,West,263,0.0,7.0,62,0.00,,,0.00,Weather View 32 v70,2013-08-14 14:55:00,
2013-08-14 08:00:00,65.3,52.3,29.93,West,263,0.0,7.0,63,0.00,,,0.00,Weather View 32 v70,2013-08-14 15:00:00,
2013-08-14 08:05:00,65.3,52.8,29.93,West,263,0.0,7.0,64,0.00,,,0.00,Weather View 32 v70,2013-08-14 15:05:00,
2013-08-14 08:10:00,65.5,52.5,29.93,West,263,0.0,7.0,63,0.00,,,0.00,Weather View 32 v70,2013-08-14 15:10:00,
2013-08-14 08:15:00,65.6,52.2,29.93,West,263,0.0,7.0,62,0.00,,,0.00,Weather View 32 v70,2013-08-14 15:15:00,
2013-08-14 08:20:00,65.8,52.8,29.93,West,263,0.0,7.0,63,0.00,,,0.00,Weather View 32 v70,2013-08-14 15:20:00,
2013-08-14 08:25:00,65.6,53.1,29.93,West,263,0.0,7.0,64,0.00,,,0.00,Weather View 32 v70,2013-08-14 15:25:00,
2013-08-14 08:30:00,65.6,52.6,29.93,West,263,0.0,7.0,63,0.00,,,0.00,Weather View 32 v70,2013-08-14 15:30:00,
2013-08-14 08:35:00,66.1,54.0,29.93,West,263,0.0,3.0,65,0.00,,,0.00,Weather View 32 v70,2013-08-14 15:35:00,
2013-08-14 08:40:00,66.9,53.4,29.93,West,263,0.0,3.0,62,0.00,,,0.00,Weather View 32 v70,2013-08-14 15:40:00,
2013-08-14 08:45:00,68.1,55.4,29.93,West,263,0.0,3.0,64,0.00,,,0.00,Weather View 32 v70,2013-08-14 15:45:00,
2013-08-14 08:50:00,68.9,55.7,29.92,West,263,2.0,4.0,63,0.00,,,0.00,Weather View 32 v70,2013-08-14 15:50:00,
2013-08-14 08:55:00,69.1,55.5,29.93,NW,304,3.0,8.0,62,0.00,,,0.00,Weather View 32 v70,2013-08-14 15:55:00,
2013-08-14 09:00:00,69.3,56.1,29.92,WNW,302,0.0,8.0,63,0.00,,,0.00,Weather View 32 v70,2013-08-14 16:00:00,
2013-08-14 09:05:00,69.8,56.2,29.92,NW,305,6.0,8.0,62,0.00,,,0.00,Weather View 32 v70,2013-08-14 16:05:00,
2013-08-14 09:10:00,70.1,56.0,29.92,WNW,302,0.0,8.0,61,0.00,,,0.00,Weather View 32 v70,2013-08-14 16:10:00,
2013-08-14 09:15:00,70.3,55.7,29.92,WNW,301,0.0,8.0,60,0.00,,,0.00,Weather View 32 v70,2013-08-14 16:15:00,
2013-08-14 09:20:00,70.4,55.3,29.92,WNW,299,0.0,8.0,59,0.00,,,0.00,Weather View 32 v70,2013-08-14 16:20:00,
2013-08-14 09:26:00,70.4,55.3,29.92,WNW,292,0.0,8.0,59,0.00,,,0.00,Weather View 32 v70,2013-08-14 16:26:00,
2013-08-14 09:31:00,70.6,55.5,29.92,WNW,292,0.0,8.0,59,0.00,,,0.00,Weather View 32 v70,2013-08-14 16:31:00,
2013-08-14 09:36:00,71.1,55.0,29.92,WNW,290,0.0,8.0,57,0.00,,,0.00,Weather View 32 v70,2013-08-14 16:36:00,
2013-08-14 09:41:00,71.6,54.5,29.92,WNW,291,3.0,8.0,55,0.00,,,0.00,Weather View 32 v70,2013-08-14 16:41:00,
2013-08-14 09:46:00,72.0,55.4,29.92,WNW,290,2.0,8.0,56,0.00,,,0.00,Weather View 32 v70,2013-08-14 16:46:00,
2013-08-14 09:51:00,72.5,54.9,29.91,WNW,290,0.0,8.0,54,0.00,,,0.00,Weather View 32 v70,2013-08-14 16:51:00,
2013-08-14 10:02:00,73.0,54.8,29.91,WNW,296,3.0,7.0,53,0.00,,,0.00,Weather View 32 v70,2013-08-14 17:02:00,
2013-08-14 10:07:00,73.0,55.3,29.91,WNW,302,5.0,7.0,54,0.00,,,0.00,Weather View 32 v70,2013-08-14 17:07:00,
2013-08-14 10:12:00,72.8,56.1,29.91,WNW,296,4.0,9.0,56,0.00,,,0.00,Weather View 32 v70,2013-08-14 17:12:00,
2013-08-14 10:17:00,73.0,55.3,29.91,NW,309,6.0,9.0,54,0.00,,,0.00,Weather View 32 v70,2013-08-14 17:17:00,
2013-08-14 10:22:00,73.0,55.3,29.91,NW,304,3.0,9.0,54,0.00,,,0.00,Weather View 32 v70,2013-08-14 17:22:00,
2013-08-14 10:27:00,73.5,55.8,29.91,NW,305,2.0,9.0,54,0.00,,,0.00,Weather View 32 v70,2013-08-14 17:27:00,
2013-08-14 10:32:00,73.5,55.3,29.91,NW,314,4.0,9.0,53,0.00,,,0.00,Weather View 32 v70,2013-08-14 17:32:00,
2013-08-14 10:37:00,73.5,55.8,29.91,NW,309,4.0,9.0,54,0.00,,,0.00,Weather View 32 v70,2013-08-14 17:37:00,
2013-08-14 10:42:00,73.3,55.6,29.91,WNW,296,3.0,9.0,54,0.00,,,0.00,Weather View 32 v70,2013-08-14 17:42:00,
2013-08-14 10:48:00,73.5,55.8,29.90,NW,304,3.0,9.0,54,0.00,,,0.00,Weather View 32 v70,2013-08-14 17:48:00,
2013-08-14 10:53:00,73.7,56.0,29.91,WNW,301,5.0,9.0,54,0.00,,,0.00,Weather View 32 v70,2013-08-14 17:53:00,
2013-08-14 10:58:00,73.9,56.7,29.90,WNW,299,3.0,9.0,55,0.00,,,0.00,Weather View 32 v70,2013-08-14 17:58:00,
2013-08-14 11:03:00,74.4,56.6,29.90,West,279,5.0,9.0,54,0.00,,,0.00,Weather View 32 v70,2013-08-14 18:03:00,
2013-08-14 11:10:00,75.1,56.2,29.89,West,278,0.0,10.0,52,0.00,,,0.00,Weather View 32 v70,2013-08-14 18:10:00,
2013-08-14 11:15:00,76.0,55.4,29.89,WNW,296,2.0,10.0,49,0.00,,,0.00,Weather View 32 v70,2013-08-14 18:15:00,
2013-08-14 11:20:00,76.5,55.3,29.89,WNW,291,3.0,10.0,48,0.00,,,0.00,Weather View 32 v70,2013-08-14 18:20:00,
2013-08-14 11:25:00,77.0,54.6,29.89,West,274,10.0,11.0,46,0.00,,,0.00,Weather View 32 v70,2013-08-14 18:25:00,
2013-08-14 11:30:00,76.8,54.4,29.89,West,273,9.0,12.0,46,0.00,,,0.00,Weather View 32 v70,2013-08-14 18:30:00,
2013-08-14 11:35:00,76.5,55.3,29.89,WNW,292,7.0,12.0,48,0.00,,,0.00,Weather View 32 v70,2013-08-14 18:35:00,
2013-08-14 11:40:00,77.0,56.9,29.89,WNW,294,5.0,12.0,50,0.00,,,0.00,Weather View 32 v70,2013-08-14 18:40:00,
2013-08-14 11:45:00,77.4,53.7,29.89,WNW,292,5.0,12.0,44,0.00,,,0.00,Weather View 32 v70,2013-08-14 18:45:00,
2013-08-14 11:55:00,77.7,55.2,29.88,WNW,284,4.0,12.0,46,0.00,,,0.00,Weather View 32 v70,2013-08-14 18:55:00,
2013-08-14 12:00:00,78.1,54.3,29.89,WNW,288,1.0,12.0,44,0.00,,,0.00,Weather View 32 v70,2013-08-14 19:00:00,
2013-08-14 12:05:00,78.3,54.5,29.88,West,262,6.0,12.0,44,0.00,,,0.00,Weather View 32 v70,2013-08-14 19:05:00,
2013-08-14 12:12:00,79.2,54.1,29.88,WNW,284,7.0,12.0,42,0.00,,,0.00,Weather View 32 v70,2013-08-14 19:12:00,
2013-08-14 12:17:00,79.9,55.3,29.88,NW,311,1.0,12.0,43,0.00,,,0.00,Weather View 32 v70,2013-08-14 19:17:00,
2013-08-14 12:23:00,80.9,53.5,29.88,WNW,298,3.0,12.0,39,0.00,,,0.00,Weather View 32 v70,2013-08-14 19:23:00,
2013-08-14 12:28:00,81.4,54.7,29.88,West,261,4.0,12.0,40,0.00,,,0.00,Weather View 32 v70,2013-08-14 19:28:00,
2013-08-14 12:40:00,82.0,53.1,29.87,WNW,298,6.0,12.0,37,0.00,,,0.00,Weather View 32 v70,2013-08-14 19:40:00,
2013-08-14 12:45:00,83.0,53.2,29.87,WNW,287,2.0,12.0,36,0.00,,,0.00,Weather View 32 v70,2013-08-14 19:45:00,
2013-08-14 12:50:00,83.6,53.0,29.87,West,261,8.0,12.0,35,0.00,,,0.00,Weather View 32 v70,2013-08-14 19:50:00,
2013-08-14 13:00:00,84.0,51.7,29.86,NW,305,4.0,12.0,33,0.00,,,0.00,Weather View 32 v70,2013-08-14 20:00:00,
2013-08-14 13:05:00,83.8,52.3,29.86,WNW,288,1.0,12.0,34,0.00,,,0.00,Weather View 32 v70,2013-08-14 20:05:00,
2013-08-14 13:10:00,83.0,52.4,29.86,West,274,0.0,12.0,35,0.00,,,0.00,Weather View 32 v70,2013-08-14 20:10:00,
2013-08-14 13:15:00,83.2,52.6,29.86,WNW,284,4.0,12.0,35,0.00,,,0.00,Weather View 32 v70,2013-08-14 20:15:00,
2013-08-14 13:22:00,83.2,53.4,29.86,WNW,285,3.0,12.0,36,0.00,,,0.00,Weather View 32 v70,2013-08-14 20:22:00,
2013-08-14 13:27:00,83.2,54.1,29.86,West,261,7.0,12.0,37,0.00,,,0.00,Weather View 32 v70,2013-08-14 20:27:00,
2013-08-14 13:32:00,83.0,54.7,29.86,West,276,7.0,12.0,38,0.00,,,0.00,Weather View 32 v70,2013-08-14 20:32:00,
2013-08-14 13:40:00,82.8,53.8,29.85,WSW,258,7.0,12.0,37,0.00,,,0.00,Weather View 32 v70,2013-08-14 20:40:00,
2013-08-14 13:45:00,82.6,54.3,29.85,WSW,256,14.0,14.0,38,0.00,,,0.00,Weather View 32 v70,2013-08-14 20:45:00,
2013-08-14 13:50:00,82.4,54.2,29.85,West,272,4.0,14.0,38,0.00,,,0.00,Weather View 32 v70,2013-08-14 20:50:00,
2013-08-14 13:55:00,82.2,54.0,29.85,West,267,9.0,16.0,38,0.00,,,0.00,Weather View 32 v70,2013-08-14 20:55:00,
2013-08-14 14:00:00,82.0,53.8,29.84,West,274,3.0,16.0,38,0.00,,,0.00,Weather View 32 v70,2013-08-14 21:00:00,
2013-08-14 14:05:00,81.8,53.6,29.85,WSW,253,5.0,18.0,38,0.00,,,0.00,Weather View 32 v70,2013-08-14 21:05:00,
2013-08-14 14:10:00,82.0,54.5,29.84,WSW,244,10.0,18.0,39,0.00,,,0.00,Weather View 32 v70,2013-08-14 21:10:00,
2013-08-14 14:15:00,81.8,54.3,29.85,West,279,4.0,18.0,39,0.00,,,0.00,Weather View 32 v70,2013-08-14 21:15:00,
2013-08-14 14:20:00,81.8,54.3,29.85,NW,307,7.0,18.0,39,0.00,,,0.00,Weather View 32 v70,2013-08-14 21:20:00,
2013-08-14 14:25:00,81.8,55.0,29.85,WNW,300,11.0,18.0,40,0.00,,,0.00,Weather View 32 v70,2013-08-14 21:25:00,
2013-08-14 14:30:00,81.6,54.2,29.85,West,277,10.0,18.0,39,0.00,,,0.00,Weather View 32 v70,2013-08-14 21:30:00,
2013-08-14 14:35:00,81.6,54.2,29.85,West,273,5.0,19.0,39,0.00,,,0.00,Weather View 32 v70,2013-08-14 21:35:00,
2013-08-14 14:40:00,81.6,54.2,29.85,WNW,288,10.0,19.0,39,0.00,,,0.00,Weather View 32 v70,2013-08-14 21:40:00,
2013-08-14 14:45:00,81.4,52.5,29.85,West,275,5.0,19.0,37,0.00,,,0.00,Weather View 32 v70,2013-08-14 21:45:00,
2013-08-14 14:50:00,81.6,54.9,29.85,West,275,9.0,19.0,40,0.00,,,0.00,Weather View 32 v70,2013-08-14 21:50:00,
2013-08-14 14:55:00,81.8,55.7,29.85,NW,317,10.0,19.0,41,0.00,,,0.00,Weather View 32 v70,2013-08-14 21:55:00,
2013-08-14 15:00:00,81.8,55.0,29.85,West,275,9.0,19.0,40,0.00,,,0.00,Weather View 32 v70,2013-08-14 22:00:00,
2013-08-14 15:05:00,81.8,54.3,29.85,West,280,5.0,19.0,39,0.00,,,0.00,Weather View 32 v70,2013-08-14 22:05:00,
2013-08-14 15:10:00,82.0,54.5,29.85,West,279,9.0,19.0,39,0.00,,,0.00,Weather View 32 v70,2013-08-14 22:10:00,
2013-08-14 15:15:00,81.8,54.3,29.85,West,266,7.0,19.0,39,0.00,,,0.00,Weather View 32 v70,2013-08-14 22:15:00,
2013-08-14 15:20:00,81.8,54.3,29.85,WNW,294,5.0,19.0,39,0.00,,,0.00,Weather View 32 v70,2013-08-14 22:20:00,
2013-08-14 15:25:00,81.8,53.6,29.85,WNW,294,8.0,22.0,38,0.00,,,0.00,Weather View 32 v70,2013-08-14 22:25:00,
2013-08-14 15:30:00,81.8,52.9,29.85,WNW,303,2.0,22.0,37,0.00,,,0.00,Weather View 32 v70,2013-08-14 22:30:00,
2013-08-14 15:40:00,81.8,51.4,29.85,West,271,6.0,22.0,35,0.00,,,0.00,Weather View 32 v70,2013-08-14 22:40:00,
2013-08-14 15:45:00,81.6,51.2,29.85,WNW,293,3.0,22.0,35,0.00,,,0.00,Weather View 32 v70,2013-08-14 22:45:00,
2013-08-14 15:50:00,81.6,51.2,29.85,West,279,4.0,22.0,35,0.00,,,0.00,Weather View 32 v70,2013-08-14 22:50:00,
2013-08-14 15:55:00,81.6,51.2,29.85,WNW,293,7.0,22.0,35,0.00,,,0.00,Weather View 32 v70,2013-08-14 22:55:00,
2013-08-14 16:05:00,81.6,52.0,29.85,WNW,300,5.0,22.0,36,0.00,,,0.00,Weather View 32 v70,2013-08-14 23:05:00,
2013-08-14 16:10:00,81.4,50.2,29.85,WNW,290,3.0,22.0,34,0.00,,,0.00,Weather View 32 v70,2013-08-14 23:10:00,
2013-08-14 16:15:00,81.4,50.2,29.84,SW,234,5.0,22.0,34,0.00,,,0.00,Weather View 32 v70,2013-08-14 23:15:00,
2013-08-14 16:20:00,81.6,50.4,29.84,NW,309,11.0,22.0,34,0.00,,,0.00,Weather View 32 v70,2013-08-14 23:20:00,
2013-08-14 16:25:00,82.0,50.8,29.84,WNW,290,11.0,20.0,34,0.00,,,0.00,Weather View 32 v70,2013-08-14 23:25:00,
2013-08-14 16:30:00,83.0,50.8,29.83,WNW,303,8.0,20.0,33,0.00,,,0.00,Weather View 32 v70,2013-08-14 23:30:00,
2013-08-14 16:35:00,83.2,50.2,29.83,WNW,291,4.0,20.0,32,0.00,,,0.00,Weather View 32 v70,2013-08-14 23:35:00,
2013-08-14 16:40:00,83.2,50.2,29.83,NW,315,9.0,20.0,32,0.00,,,0.00,Weather View 32 v70,2013-08-14 23:40:00,
2013-08-14 16:45:00,83.8,49.8,29.83,WSW,238,10.0,20.0,31,0.00,,,0.00,Weather View 32 v70,2013-08-14 23:45:00,
2013-08-14 16:50:00,83.2,49.3,29.83,WNW,294,7.0,20.0,31,0.00,,,0.00,Weather View 32 v70,2013-08-14 23:50:00,
2013-08-14 16:55:00,83.6,50.5,29.83,NW,305,12.0,20.0,32,0.00,,,0.00,Weather View 32 v70,2013-08-14 23:55:00,
2013-08-14 17:00:00,83.6,49.7,29.83,NW,314,15.0,20.0,31,0.00,,,0.00,Weather View 32 v70,2013-08-15 00:00:00,
2013-08-14 17:05:00,83.6,49.7,29.84,WNW,288,7.0,20.0,31,0.00,,,0.00,Weather View 32 v70,2013-08-15 00:05:00,
2013-08-14 17:10:00,83.2,49.3,29.84,WNW,294,4.0,20.0,31,0.00,,,0.00,Weather View 32 v70,2013-08-15 00:10:00,
2013-08-14 17:15:00,82.8,49.8,29.84,NW,310,11.0,20.0,32,0.00,,,0.00,Weather View 32 v70,2013-08-15 00:15:00,
2013-08-14 17:20:00,82.2,50.1,29.84,WNW,302,10.0,20.0,33,0.00,,,0.00,Weather View 32 v70,2013-08-15 00:20:00,
2013-08-14 17:25:00,82.0,50.0,29.84,West,278,6.0,19.0,33,0.00,,,0.00,Weather View 32 v70,2013-08-15 00:25:00,
2013-08-14 17:30:00,81.8,49.8,29.84,WNW,297,3.0,19.0,33,0.00,,,0.00,Weather View 32 v70,2013-08-15 00:30:00,
2013-08-14 17:35:00,81.6,49.6,29.83,NW,304,9.0,19.0,33,0.00,,,0.00,Weather View 32 v70,2013-08-15 00:35:00,
2013-08-14 17:40:00,81.4,47.8,29.83,WNW,290,5.0,19.0,31,0.00,,,0.00,Weather View 32 v70,2013-08-15 00:40:00,
2013-08-14 17:45:00,81.4,47.8,29.83,WNW,296,5.0,19.0,31,0.00,,,0.00,Weather View 32 v70,2013-08-15 00:45:00,
2013-08-14 17:50:00,81.6,47.9,29.84,WNW,295,12.0,18.0,31,0.00,,,0.00,Weather View 32 v70,2013-08-15 00:50:00,
2013-08-14 17:55:00,81.4,47.8,29.84,WNW,298,8.0,18.0,31,0.00,,,0.00,Weather View 32 v70,2013-08-15 00:55:00,
2013-08-14 18:00:00,81.4,47.8,29.84,NW,304,7.0,18.0,31,0.00,,,0.00,Weather View 32 v70,2013-08-15 01:00:00,
2013-08-14 18:05:00,81.1,47.5,29.84,WNW,292,4.0,18.0,31,0.00,,,0.00,Weather View 32 v70,2013-08-15 01:05:00,
2013-08-14 18:10:00,80.7,47.2,29.84,West,277,6.0,18.0,31,0.00,,,0.00,Weather View 32 v70,2013-08-15 01:10:00,
2013-08-14 18:15:00,80.5,45.2,29.84,West,271,7.0,18.0,29,0.00,,,0.00,Weather View 32 v70,2013-08-15 01:15:00,
2013-08-14 18:20:00,80.5,45.2,29.84,NW,311,7.0,18.0,29,0.00,,,0.00,Weather View 32 v70,2013-08-15 01:20:00,
2013-08-14 18:25:00,80.5,46.1,29.84,WNW,286,6.0,18.0,30,0.00,,,0.00,Weather View 32 v70,2013-08-15 01:25:00,
2013-08-14 18:30:00,80.3,45.9,29.84,WNW,288,3.0,18.0,30,0.00,,,0.00,Weather View 32 v70,2013-08-15 01:30:00,
2013-08-14 18:35:00,80.1,44.9,29.84,West,275,6.0,18.0,29,0.00,,,0.00,Weather View 32 v70,2013-08-15 01:35:00,
2013-08-14 18:40:00,79.9,44.7,29.84,West,263,5.0,18.0,29,0.00,,,0.00,Weather View 32 v70,2013-08-15 01:40:00,
2013-08-14 18:45:00,79.9,45.6,29.85,West,259,2.0,18.0,30,0.00,,,0.00,Weather View 32 v70,2013-08-15 01:45:00,
2013-08-14 18:50:00,79.9,44.7,29.84,West,274,2.0,18.0,29,0.00,,,0.00,Weather View 32 v70,2013-08-15 01:50:00,
2013-08-14 18:55:00,79.8,43.7,29.84,West,261,8.0,18.0,28,0.00,,,0.00,Weather View 32 v70,2013-08-15 01:55:00,
2013-08-14 19:00:00,79.6,44.5,29.84,WNW,291,3.0,18.0,29,0.00,,,0.00,Weather View 32 v70,2013-08-15 02:00:00,
2013-08-14 19:05:00,79.6,44.5,29.85,WNW,285,5.0,18.0,29,0.00,,,0.00,Weather View 32 v70,2013-08-15 02:05:00,
2013-08-14 19:10:00,79.4,44.3,29.85,WSW,252,5.0,18.0,29,0.00,,,0.00,Weather View 32 v70,2013-08-15 02:10:00,
2013-08-14 19:15:00,79.4,45.2,29.85,West,273,2.0,18.0,30,0.00,,,0.00,Weather View 32 v70,2013-08-15 02:15:00,
2013-08-14 19:20:00,79.0,45.7,29.85,West,281,2.0,18.0,31,0.00,,,0.00,Weather View 32 v70,2013-08-15 02:20:00,
2013-08-14 19:25:00,79.0,44.8,29.85,West,265,4.0,18.0,30,0.00,,,0.00,Weather View 32 v70,2013-08-15 02:25:00,
2013-08-14 19:30:00,79.0,43.9,29.85,WNW,297,6.0,15.0,29,0.00,,,0.00,Weather View 32 v70,2013-08-15 02:30:00,
2013-08-14 19:35:00,79.0,44.8,29.85,West,279,0.0,15.0,30,0.00,,,0.00,Weather View 32 v70,2013-08-15 02:35:00,
2013-08-14 19:40:00,78.8,44.7,29.85,West,273,4.0,15.0,30,0.00,,,0.00,Weather View 32 v70,2013-08-15 02:40:00,
2013-08-14 19:45:00,78.6,45.3,29.85,West,271,0.0,15.0,31,0.00,,,0.00,Weather View 32 v70,2013-08-15 02:45:00,
2013-08-14 19:50:00,78.5,45.3,29.85,WNW,284,4.0,15.0,31,0.00,,,0.00,Weather View 32 v70,2013-08-15 02:50:00,
2013-08-14 19:55:00,78.3,45.1,29.85,WNW,294,7.0,15.0,31,0.00,,,0.00,Weather View 32 v70,2013-08-15 02:55:00,
2013-08-14 20:00:00,78.1,45.8,29.85,WNW,303,5.0,15.0,32,0.00,,,0.00,Weather View 32 v70,2013-08-15 03:00:00,
2013-08-14 20:05:00,78.3,45.1,29.85,West,281,4.0,15.0,31,0.00,,,0.00,Weather View 32 v70,2013-08-15 03:05:00,
2013-08-14 20:10:00,78.3,45.9,29.85,WNW,286,4.0,15.0,32,0.00,,,0.00,Weather View 32 v70,2013-08-15 03:10:00,
2013-08-14 20:15:00,78.1,45.8,29.85,WSW,252,6.0,15.0,32,0.00,,,0.00,Weather View 32 v70,2013-08-15 03:15:00,
2013-08-14 20:20:00,78.1,46.6,29.86,West,270,3.0,15.0,33,0.00,,,0.00,Weather View 32 v70,2013-08-15 03:20:00,
2013-08-14 20:25:00,77.9,45.6,29.86,West,270,0.0,15.0,32,0.00,,,0.00,Weather View 32 v70,2013-08-15 03:25:00,
2013-08-14 20:30:00,77.7,45.4,29.86,WNW,283,0.0,14.0,32,0.00,,,0.00,Weather View 32 v70,2013-08-15 03:30:00,
2013-08-14 20:35:00,77.7,45.4,29.86,WNW,284,4.0,14.0,32,0.00,,,0.00,Weather View 32 v70,2013-08-15 03:35:00,
2013-08-14 20:40:00,77.9,45.6,29.86,West,271,0.0,14.0,32,0.00,,,0.00,Weather View 32 v70,2013-08-15 03:40:00,
2013-08-14 20:45:00,77.7,45.4,29.86,West,273,4.0,14.0,32,0.00,,,0.00,Weather View 32 v70,2013-08-15 03:45:00,
2013-08-14 20:50:00,77.7,44.6,29.86,WNW,284,2.0,14.0,31,0.00,,,0.00,Weather View 32 v70,2013-08-15 03:50:00,
2013-08-14 20:55:00,77.9,45.6,29.86,WSW,253,3.0,14.0,32,0.00,,,0.00,Weather View 32 v70,2013-08-15 03:55:00,
2013-08-14 21:00:00,77.7,45.4,29.87,West,261,2.0,14.0,32,0.00,,,0.00,Weather View 32 v70,2013-08-15 04:00:00,
2013-08-14 21:01:00,77.7,45.4,29.87,West,261,0.0,14.0,32,0.00,,,0.00,Weather View 32 v70,2013-08-15 04:01:00,
2013-08-14 21:06:00,77.6,46.1,29.87,West,260,1.0,10.0,33,0.00,,,0.00,Weather View 32 v70,2013-08-15 04:06:00,
2013-08-14 21:11:00,77.6,45.3,29.87,WSW,257,4.0,10.0,32,0.00,,,0.00,Weather View 32 v70,2013-08-15 04:11:00,
2013-08-14 21:16:00,77.6,44.5,29.87,West,264,2.0,10.0,31,0.00,,,0.00,Weather View 32 v70,2013-08-15 04:16:00,
2013-08-14 21:21:00,77.4,45.1,29.87,West,263,0.0,9.0,32,0.00,,,0.00,Weather View 32 v70,2013-08-15 04:21:00,
2013-08-14 21:26:00,77.2,45.0,29.87,West,263,0.0,9.0,32,0.00,,,0.00,Weather View 32 v70,2013-08-15 04:26:00,
2013-08-14 21:31:00,77.0,45.6,29.87,West,263,2.0,9.0,33,0.00,,,0.00,Weather View 32 v70,2013-08-15 04:31:00,
2013-08-14 21:36:00,76.7,46.1,29.87,West,263,0.0,9.0,34,0.00,,,0.00,Weather View 32 v70,2013-08-15 04:36:00,
2013-08-14 21:41:00,76.5,45.2,29.87,West,261,0.0,9.0,33,0.00,,,0.00,Weather View 32 v70,2013-08-15 04:41:00,
2013-08-14 21:46:00,76.3,45.8,29.87,West,261,0.0,9.0,34,0.00,,,0.00,Weather View 32 v70,2013-08-15 04:46:00,
2013-08-14 21:51:00,76.1,45.6,29.87,West,261,0.0,9.0,34,0.00,,,0.00,Weather View 32 v70,2013-08-15 04:51:00,
2013-08-14 21:56:00,76.0,46.3,29.87,West,262,0.0,8.0,35,0.00,,,0.00,Weather View 32 v70,2013-08-15 04:56:00,
2013-08-14 22:01:00,75.8,46.1,29.87,West,261,0.0,8.0,35,0.00,,,0.00,Weather View 32 v70,2013-08-15 05:01:00,
2013-08-14 22:06:00,75.4,46.5,29.87,West,261,0.0,8.0,36,0.00,,,0.00,Weather View 32 v70,2013-08-15 05:06:00,
2013-08-14 22:11:00,75.1,46.2,29.87,West,261,0.0,8.0,36,0.00,,,0.00,Weather View 32 v70,2013-08-15 05:11:00,
2013-08-14 22:16:00,74.9,46.8,29.87,West,261,0.0,6.0,37,0.00,,,0.00,Weather View 32 v70,2013-08-15 05:16:00,
2013-08-14 22:21:00,74.6,46.5,29.88,West,261,0.0,5.0,37,0.00,,,0.00,Weather View 32 v70,2013-08-15 05:21:00,
2013-08-14 22:26:00,74.6,46.5,29.88,West,261,0.0,5.0,37,0.00,,,0.00,Weather View 32 v70,2013-08-15 05:26:00,
2013-08-14 22:31:00,74.6,47.2,29.88,West,261,0.0,5.0,38,0.00,,,0.00,Weather View 32 v70,2013-08-15 05:31:00,
2013-08-14 22:36:00,74.6,47.2,29.88,West,262,0.0,5.0,38,0.00,,,0.00,Weather View 32 v70,2013-08-15 05:36:00,
2013-08-14 22:41:00,74.7,46.6,29.88,West,262,5.0,5.0,37,0.00,,,0.00,Weather View 32 v70,2013-08-15 05:41:00,
2013-08-14 22:46:00,75.3,46.4,29.88,West,261,3.0,7.0,36,0.00,,,0.00,Weather View 32 v70,2013-08-15 05:46:00,
2013-08-14 22:51:00,75.8,46.1,29.88,West,265,5.0,7.0,35,0.00,,,0.00,Weather View 32 v70,2013-08-15 05:51:00,
2013-08-14 22:56:00,76.0,46.3,29.88,West,261,3.0,7.0,35,0.00,,,0.00,Weather View 32 v70,2013-08-15 05:56:00,
2013-08-14 23:01:00,76.1,46.4,29.88,West,265,3.0,10.0,35,0.00,,,0.00,Weather View 32 v70,2013-08-15 06:01:00,
2013-08-14 23:06:00,76.0,47.0,29.88,West,261,4.0,10.0,36,0.00,,,0.00,Weather View 32 v70,2013-08-15 06:06:00,
2013-08-14 23:11:00,75.8,47.6,29.88,West,281,4.0,10.0,37,0.00,,,0.00,Weather View 32 v70,2013-08-15 06:11:00,
2013-08-14 23:16:00,75.6,48.1,29.88,WNW,292,4.0,10.0,38,0.00,,,0.00,Weather View 32 v70,2013-08-15 06:16:00,
2013-08-14 23:21:00,75.1,48.4,29.89,WNW,293,5.0,10.0,39,0.00,,,0.00,Weather View 32 v70,2013-08-15 06:21:00,
2013-08-14 23:26:00,74.6,50.6,29.88,WNW,300,3.0,10.0,43,0.00,,,0.00,Weather View 32 v70,2013-08-15 06:26:00,
2013-08-14 23:31:00,74.2,50.2,29.88,WNW,303,3.0,10.0,43,0.00,,,0.00,Weather View 32 v70,2013-08-15 06:31:00,
2013-08-14 23:36:00,74.0,50.0,29.88,WNW,301,7.0,10.0,43,0.00,,,0.00,Weather View 32 v70,2013-08-15 06:36:00,
2013-08-14 23:41:00,73.9,51.8,29.88,WNW,299,4.0,11.0,46,0.00,,,0.00,Weather View 32 v70,2013-08-15 06:41:00,
2013-08-14 23:46:00,73.5,52.5,29.88,WNW,301,6.0,11.0,48,0.00,,,0.00,Weather View 32 v70,2013-08-15 06:46:00,
2013-08-14 23:51:00,73.3,52.4,29.89,NW,305,4.0,11.0,48,0.00,,,0.00,Weather View 32 v70,2013-08-15 06:51:00,
2013-08-14 23:56:00,73.3,52.4,29.89,NW,310,4.0,11.0,48,0.00,,,0.00,Weather View 32 v70,2013-08-15 06:56:00,